CAPE
166 123 69 33 0 0 0 0 0 2 1 0 0 13 1 28 55 57 55 44 34 5 0 0 0 0 0 0 0 0 0 0
209 154 91 59 0 0 0 0 1 0 0 0 0 0 9 7 3 34 28 46 56 43 0 0 0 0 0 1 0 0 0 0
212 185 113 43 0 0 0 0 0 0 0 0 0 0 12 14 5 28 25 41 54 57 20 26 5 10 10 26 0 0 0 0
206 151 98 0 0 0 0 0 0 0 0 3 2 6 0 37 12 12 3 3 21 36 31 15 13 50 45 35 1 4 2 0
190 122 91 0 0 0 2 0 0 0 0 0 0 0 0 7 5 20 6 4 5 4 29 51 39 49 61 59 22 8 0 4
197 148 93 0 0 2 2 0 0 1 0 0 0 0 0 3 3 6 7 4 7 5 1 1 26 44 76 30 4 26 8 7
220 191 75 0 0 1 1 1 5 4 3 0 0 0 0 2 7 10 10 12 0 7 8 4 0 0 0 63 52 55 40 59
234 208 72 0 0 2 1 3 8 6 5 0 0 0 0 5 20 15 9 5 2 3 20 4 1 2 72 65 47 63 27 26
225 174 89 4 0 0 2 1 2 5 3 10 0 0 0 0 13 2 18 14 4 8 5 0 1 0 59 49 47 31 39 38
202 154 138 14 0 0 0 1 0 5 6 1 0 0 0 0 0 0 23 15 20 20 8 0 0 40 50 51 41 33 30 53
212 189 181 95 0 0 0 0 1 3 4 4 3 1 0 0 0 0 5 0 9 18 14 2 0 1 30 28 10 24 35 29
237 232 231 193 77 5 0 0 0 0 3 5 6 0 0 0 0 2 4 0 0 4 15 12 4 5 4 5 11 10 25 28
320 328 271 262 201 25 0 0 0 0 0 3 3 1 0 0 0 0 3 0 0 0 0 1 2 0 0 0 0 4 25 22
398 367 330 300 261 216 39 0 0 0 0 0 5 7 0 0 0 0 0 0 0 0 0 0 0 0 0 0 0 0 1 12
124 341 359 349 322 305 275 96 9 0 0 0 0 1 0 0 0 0 0 0 0 0 0 0 0 0 0 0 0 6 26 33
0 0 227 482 368 363 369 376 293 11 6 0 0 0 0 1 0 0 0 0 4 4 0 0 1 1 6 18 32 37 65 76
0 0 0 106 536 471 451 441 408 349 106 18 0 0 5 7 9 0 0 1 6 8 9 12 8 2 15 49 74 84 91 94
13 3 0 9 223 527 602 531 476 428 402 159 19 10 4 5 0 0 0 0 15 8 23 37 66 15 16 35 73 107 93 79
1 0 0 0 0 22 555 584 605 529 435 375 201 36 44 18 24 24 7 5 11 28 24 34 23 25 34 46 58 74 92 68
CIN
-157 -151 -100 -95 -0 -0 -0 -0 -0 -0 -0 -0 -0 -6 -0 -3 -7 -3 -0 -4 -7 -78 -0 -0 -0 -0 -0 -0 -0 -0 -0 -0
-157 -135 -104 -105 -0 -0 -0 -0 -0 -0 -0 -0 -0 -0 -1 -4 -13 -0 -11 -3 -7 -24 -0 -0 -0 -0 -0 -1 -0 -0 -0 -0
-141 -134 -105 -116 -0 -0 -0 -0 -0 -0 -0 -0 -0 -0 -6 -1 -17 -0 -6 -8 -8 -7 -5 -2 -16 -5 -2 -3 -0 -0 -0 -0
-142 -123 -102 -0 -0 -0 -0 -0 -0 -0 -0 -0 -0 -0 -0 -0 -0 -0 -0 -0 -3 -2 -10 -21 -9 -1 -4 -3 -35 -5 -1 -0
-140 -123 -80 -0 -0 -0 -0 -0 -0 -0 -0 -0 -0 -0 -0 -0 -0 -0 -0 -0 -0 -2 -4 -8 -20 -8 -4 -5 -28 -5 -0 -15
-155 -126 -59 -0 -0 -0 -0 -0 -0 -0 -0 -0 -0 -0 -0 -2 -1 -0 -0 -0 -0 -0 -0 -0 -0 -1 -0 -29 -26 -0 -98 -16
-178 -94 -74 -0 -0 -0 -0 -0 -0 -0 -0 -0 -0 -0 -0 -0 -1 -1 -0 -1 -0 -0 -0 -1 -0 -0 -0 -77 -68 -71 -64 -61
-151 -110 -71 -0 -0 -5 -0 -0 -129 -0 -0 -0 -0 -0 -0 -1 -0 -0 -0 -0 -0 -0 -0 -0 -0 -0 -51 -42 -24 -54 -49 -78
-133 -100 -61 -143 -0 -0 -4 -0 -19 -28 -0 -83 -0 -0 -0 -0 -5 -0 -0 -0 -0 -0 -0 -0 -0 -0 -17 -53 -46 -57 -62 -83
-126 -113 -95 -120 -0 -0 -0 -2 -0 -0 -0 -0 -0 -0 -0 -0 -0 -0 -5 -2 -1 -0 -0 -0 -0 -12 -49 -42 -62 -62 -55 -67
-106 -108 -98 -91 -0 -0 -0 -0 -0 -0 -0 -0 -0 -0 -0 -0 -0 -0 -1 -0 -0 -0 -0 -0 -0 -1 -45 -41 -42 -27 -23 -24
-66 -89 -87 -83 -94 -264 -0 -0 -0 -0 -0 -0 -0 -0 -0 -0 -0 -5 -0 -0 -0 -0 -0 -0 -0 -0 -0 -8 -27 -31 -12 -18
-50 -54 -61 -73 -68 -153 -0 -0 -0 -0 -0 -0 -0 -0 -0 -0 -0 -1 -1 -0 -0 -0 -0 -0 -0 -2 -0 -0 -0 -11 -11 -15
-35 -44 -35 -61 -63 -63 -138 -0 -0 -0 -0 -0 -142 -43 -0 -0 -0 -0 -0 -0 -0 -0 -0 -0 -0 -0 -0 -0 -0 -0 -4 -24
-16 -29 -50 -57 -68 -82 -57 -81 -437 -0 -0 -0 -0 -0 -0 -0 -0 -0 -0 -0 -0 -0 -0 -0 -0 -0 -0 -0 -0 -36 -33 -15
-0 -0 -34 -37 -40 -65 -77 -79 -43 -382 -413 -0 -0 -0 -0 -1 -0 -0 -0 -0 -22 -16 -0 -0 -0 -1 -10 -70 -47 -26 -14 -8
-0 -0 -0 -41 -25 -48 -65 -68 -80 -50 -92 -370 -2 -0 -28 -27 -25 -0 -0 -6 -3 -1 -12 -12 -1 -1 -41 -63 -36 -26 -20 -15
-46 -71 -5 -45 -25 -34 -30 -36 -56 -75 -73 -115 -311 -305 -315 -216 -0 -0 -0 -0 -7 -0 -10 -78 -34 -81 -91 -76 -40 -12 -5 -0
-127 -7 -5 -0 -0 -32 -17 -30 -60 -79 -82 -95 -141 -309 -280 -248 -187 -190 -128 -67 -34 -50 -26 -25 -23 -49 -72 -64 -30 -6 -3 -0
Wind_Speed
30 35 nan nan nan nan nan nan nan nan nan nan nan nan nan nan nan nan nan nan nan nan nan nan nan nan nan nan nan nan nan nan
29 32 nan nan nan nan nan nan nan nan nan nan nan nan nan nan nan nan nan nan nan nan nan nan nan nan nan nan nan nan nan nan
29 32 31 nan nan nan nan nan nan nan nan nan nan nan nan nan nan nan nan nan nan nan nan nan nan nan nan nan nan nan nan nan
32 31 nan nan nan nan nan nan nan nan nan nan nan nan nan nan nan nan nan nan nan nan nan nan nan nan nan nan nan nan nan nan
28 29 nan nan nan nan nan nan nan nan nan nan nan nan nan nan nan nan nan nan nan nan nan nan nan nan nan nan nan nan nan nan
28 31 nan nan nan nan nan nan nan nan nan nan nan nan nan nan nan nan nan nan nan nan nan nan nan nan nan nan nan nan nan nan
24 29 nan nan nan nan nan nan nan nan nan nan nan nan nan nan nan nan nan nan nan nan nan nan nan nan nan nan nan nan nan nan
27 27 nan nan nan nan nan nan nan nan nan nan nan nan nan nan nan nan nan nan nan nan nan nan nan nan nan nan nan nan nan nan
25 26 nan nan nan nan nan nan nan nan nan nan nan nan nan nan nan nan nan nan nan nan nan nan nan nan nan nan nan nan nan nan
25 24 23 nan nan nan nan nan nan nan nan nan nan nan nan nan nan nan nan nan nan nan nan nan nan nan nan nan nan nan nan nan
25 21 21 nan nan nan nan nan nan nan nan nan nan nan nan nan nan nan nan nan nan nan nan nan nan nan nan nan nan nan nan nan
20 19 21 21 nan nan nan nan nan nan nan nan nan nan nan nan nan nan nan nan nan nan nan nan nan nan nan nan nan nan nan nan
20 18 21 20 18 nan nan nan nan nan nan nan nan nan nan nan nan nan nan nan nan nan nan nan nan nan nan nan nan nan nan nan
22 24 19 19 18 18 nan nan nan nan nan nan nan nan nan nan nan nan nan nan nan nan nan nan nan nan nan nan nan nan nan nan
25 17 24 20 21 21 21 nan nan nan nan nan nan nan nan nan nan nan nan nan nan nan nan nan nan nan nan nan nan nan nan nan
nan nan 11 26 22 24 22 23 23 nan nan nan nan nan nan nan nan nan nan nan nan nan nan nan nan nan nan nan nan nan nan nan
nan nan nan 41 22 22 24 25 23 24 19 nan nan nan nan nan nan nan nan nan nan nan nan nan nan nan nan nan nan nan nan nan
nan nan nan nan 37 22 28 24 26 23 22 21 nan nan nan nan nan nan nan nan nan nan nan nan nan nan nan nan nan 46 nan nan
nan nan nan nan nan nan 27 21 27 26 26 26 24 nan nan nan nan nan nan nan nan nan nan nan nan nan nan nan nan nan nan nan
Wind_Direction
303 297 nan nan nan nan nan nan nan nan nan nan nan nan nan nan nan nan nan nan nan nan nan nan nan nan nan nan nan nan nan nan
300 297 nan nan nan nan nan nan nan nan nan nan nan nan nan nan nan nan nan nan nan nan nan nan nan nan nan nan nan nan nan nan
312 302 302 nan nan nan nan nan nan nan nan nan nan nan nan nan nan nan nan nan nan nan nan nan nan nan nan nan nan nan nan nan
315 303 nan nan nan nan nan nan nan nan nan nan nan nan nan nan nan nan nan nan nan nan nan nan nan nan nan nan nan nan nan nan
313 294 nan nan nan nan nan nan nan nan nan nan nan nan nan nan nan nan nan nan nan nan nan nan nan nan nan nan nan nan nan nan
318 297 nan nan nan nan nan nan nan nan nan nan nan nan nan nan nan nan nan nan nan nan nan nan nan nan nan nan nan nan nan nan
293 285 nan nan nan nan nan nan nan nan nan nan nan nan nan nan nan nan nan nan nan nan nan nan nan nan nan nan nan nan nan nan
292 297 nan nan nan nan nan nan nan nan nan nan nan nan nan nan nan nan nan nan nan nan nan nan nan nan nan nan nan nan nan nan
299 302 nan nan nan nan nan nan nan nan nan nan nan nan nan nan nan nan nan nan nan nan nan nan nan nan nan nan nan nan nan nan
297 294 295 nan nan nan nan nan nan nan nan nan nan nan nan nan nan nan nan nan nan nan nan nan nan nan nan nan nan nan nan nan
279 287 287 nan nan nan nan nan nan nan nan nan nan nan nan nan nan nan nan nan nan nan nan nan nan nan nan nan nan nan nan nan
275 275 279 282 nan nan nan nan nan nan nan nan nan nan nan nan nan nan nan nan nan nan nan nan nan nan nan nan nan nan nan nan
260 271 271 270 280 nan nan nan nan nan nan nan nan nan nan nan nan nan nan nan nan nan nan nan nan nan nan nan nan nan nan nan
241 264 270 271 273 278 nan nan nan nan nan nan nan nan nan nan nan nan nan nan nan nan nan nan nan nan nan nan nan nan nan nan
220 258 274 270 278 281 284 nan nan nan nan nan nan nan nan nan nan nan nan nan nan nan nan nan nan nan nan nan nan nan nan nan
nan nan 231 275 266 273 280 290 296 nan nan nan nan nan nan nan nan nan nan nan nan nan nan nan nan nan nan nan nan nan nan nan
nan nan nan 221 274 276 282 287 298 300 302 nan nan nan nan nan nan nan nan nan nan nan nan nan nan nan nan nan nan nan nan nan
nan nan nan nan 228 233 285 280 281 294 298 295 nan nan nan nan nan nan nan nan nan nan nan nan nan nan nan nan nan 276 nan nan
nan nan nan nan nan nan 247 265 298 297 295 296 294 nan nan nan nan nan nan nan nan nan nan nan nan nan nan nan nan nan nan nan